Flag Island, MN

6:34 PM CST on January 16, 2018 (GMT -0600)
Flag Island

Weather History for KFGN - April, 2014

Change the Weather History Date:

Tuesday, April 22, 2014

  Actual Average Record
Temperature  
Mean Temperature 32 °F -  
Max Temperature 39 °F 45 °F 66 °F (2006)
Min Temperature 26 °F 28 °F 23 °F (2002)
Degree Days  
Heating Degree Days 32    
Moisture  
Dew Point 25 °F    
Average Humidity 73    
Maximum Humidity 93    
Minimum Humidity 45    
Precipitation  
Precipitation 0.00 in - - ()
Sea Level Pressure  
Sea Level Pressure 30.10 in    
Wind  
Wind Speed 4 mph (South)    
Max Wind Speed 9 mph    
Max Gust Speed -    
Visibility 10 miles    
Events      
Averages and records for this station are not official NWS values.
T = Trace of Precipitation, MM = Missing Value Source: NWS Daily Summary

Daily Weather History Graph

Daily Weather History Graph

Search for Another Location

Airport or City:

Trip Planner

Search our weather history database for the weather conditions in past years. The results will help you decide how hot, cold, wet, or windy it might be!

Date:

Astronomy

Apr. 22, 2014 Rise Set
Actual Time 6:14 AM CDT 8:22 PM CDT
Civil Twilight 5:39 AM CDT 8:57 PM CDT
Nautical Twilight 4:56 AM CDT 9:40 PM CDT
Astronomical Twilight 4:08 AM CDT 10:29 PM CDT
Moon 2:41 AM CDT (4/22) 12:48 PM CDT (4/22)
Length of Visible Light 15h 18m
Length of Day
14h 08m
Last Quarter, 46% of the Moon is Illuminated
Apr 22
Last Quarter
Apr 29
New
May 6
First Quarter
May 14
Full
May 21
Last Quarter

Hourly Weather History & Observations

Time (CDT) Temp. Windchill Dew Point Humidity Pressure Visibility Wind Dir Wind Speed Gust Speed Precip Events Conditions
12:13 AM 32.0 °F 24.2 °F 26.6 °F 80% 30.11 in 10.0 mi WNW 9.2 mph - N/A   Clear
12:33 AM 32.0 °F 25.6 °F 26.6 °F 80% 30.11 in 10.0 mi NW 6.9 mph - N/A   Clear
12:53 AM 30.2 °F 23.4 °F 26.6 °F 86% 30.11 in 10.0 mi NW 6.9 mph - N/A   Clear
1:14 AM 30.2 °F - 26.6 °F 86% 30.11 in 10.0 mi Calm Calm - N/A   Clear
1:33 AM 30.2 °F 26.7 °F 26.6 °F 86% 30.11 in 10.0 mi NNW 3.5 mph - N/A   Clear
1:54 AM 30.2 °F - 26.6 °F 86% 30.11 in 10.0 mi Calm Calm - N/A   Clear
2:13 AM 30.2 °F 26.7 °F 26.6 °F 86% 30.11 in 10.0 mi WNW 3.5 mph - N/A   Clear
2:34 AM 32.0 °F 27.5 °F 26.6 °F 80% 30.11 in 10.0 mi WNW 4.6 mph - N/A   Clear
2:53 AM 30.2 °F - 26.6 °F 86% 30.11 in 10.0 mi Calm Calm - N/A   Clear
3:14 AM 28.4 °F - 26.6 °F 93% 30.11 in 10.0 mi Calm Calm - N/A   Clear
3:33 AM 30.2 °F - 26.6 °F 86% 30.11 in 10.0 mi Calm Calm - N/A   Clear
3:54 AM 28.4 °F - 24.8 °F 86% 30.11 in 10.0 mi Calm Calm - N/A   Clear
4:13 AM 28.4 °F - 26.6 °F 93% 30.11 in 10.0 mi Calm Calm - N/A   Clear
4:34 AM 28.4 °F - 26.6 °F 93% 30.11 in 10.0 mi Calm Calm - N/A   Clear
4:53 AM 28.4 °F 24.6 °F 24.8 °F 86% 30.11 in 10.0 mi North 3.5 mph - N/A   Clear
5:13 AM 26.6 °F 22.6 °F 24.8 °F 93% 30.12 in 10.0 mi North 3.5 mph - N/A   Clear
5:33 AM 26.6 °F 22.6 °F 24.8 °F 93% 30.12 in 10.0 mi NNW 3.5 mph - N/A   Clear
6:14 AM 28.4 °F - 24.8 °F 86% 30.13 in 10.0 mi Calm Calm - N/A   Clear
6:33 AM 28.4 °F - 24.8 °F 86% 30.13 in 10.0 mi Calm Calm - N/A   Clear
6:53 AM 28.4 °F - 24.8 °F 86% 30.13 in 10.0 mi Calm Calm - N/A   Clear
7:13 AM 30.2 °F 25.4 °F 26.6 °F 86% 30.13 in 10.0 mi WNW 4.6 mph - N/A   Clear
7:33 AM 30.2 °F 26.7 °F 26.6 °F 86% 30.13 in 10.0 mi NNW 3.5 mph - N/A   Clear
7:53 AM 28.4 °F 24.6 °F 24.8 °F 86% 30.14 in 10.0 mi North 3.5 mph - N/A   Clear
8:13 AM 28.4 °F - 24.8 °F 86% 30.14 in 10.0 mi Calm Calm - N/A   Clear
8:33 AM 30.2 °F - 26.6 °F 86% 30.15 in 10.0 mi Calm Calm - N/A   Clear
9:01 AM 32.0 °F - 26.6 °F 80% 30.14 in 10.0 mi North 2.3 mph - N/A   Clear
9:21 AM 33.8 °F - 26.6 °F 75% 30.15 in 10.0 mi Calm Calm - N/A   Clear
9:33 AM 33.8 °F - 26.6 °F 75% 30.15 in 10.0 mi Calm Calm - N/A   Clear
9:53 AM 35.6 °F - 26.6 °F 70% 30.14 in 10.0 mi Calm Calm - N/A   Clear
10:14 AM 37.4 °F - 24.8 °F 60% 30.14 in 10.0 mi Calm Calm - N/A   Clear
10:33 AM 33.8 °F 29.6 °F 28.4 °F 81% 30.14 in 10.0 mi SSE 4.6 mph - N/A   Clear
10:53 AM 33.8 °F - 28.4 °F 81% 30.15 in 10.0 mi Calm Calm - N/A   Clear
11:14 AM 33.8 °F 29.6 °F 28.4 °F 81% 30.15 in 10.0 mi SSE 4.6 mph - N/A   Clear
11:33 AM 35.6 °F 30.7 °F 28.4 °F 75% 30.15 in 10.0 mi SSE 5.8 mph - N/A   Clear
11:53 AM 33.8 °F 27.7 °F 28.4 °F 81% 30.15 in 10.0 mi SSE 6.9 mph - N/A   Clear
12:13 PM 35.6 °F 29.2 °F 28.4 °F 75% 30.14 in 10.0 mi SSE 8.1 mph - N/A   Clear
12:33 PM 35.6 °F 29.2 °F 28.4 °F 75% 30.14 in 10.0 mi South 8.1 mph - N/A   Clear
12:53 PM 35.6 °F 28.6 °F 28.4 °F 75% 30.13 in 10.0 mi SSE 9.2 mph - N/A   Clear
1:13 PM 35.6 °F 29.9 °F 26.6 °F 70% 30.13 in 10.0 mi South 6.9 mph - N/A   Clear
1:33 PM 35.6 °F 29.9 °F 26.6 °F 70% 30.12 in 10.0 mi South 6.9 mph - N/A   Clear
1:53 PM 35.6 °F 29.2 °F 26.6 °F 70% 30.12 in 10.0 mi SSE 8.1 mph - N/A   Clear
2:13 PM 37.4 °F 32.8 °F 24.8 °F 60% 30.12 in 10.0 mi SSE 5.8 mph - N/A   Clear
2:33 PM 35.6 °F 31.7 °F 26.6 °F 70% 30.11 in 10.0 mi SSE 4.6 mph - N/A   Clear
2:53 PM 35.6 °F 30.7 °F 26.6 °F 70% 30.11 in 10.0 mi SSE 5.8 mph - N/A   Clear
3:13 PM 35.6 °F 29.9 °F 26.6 °F 70% 30.11 in 10.0 mi South 6.9 mph - N/A   Clear
3:33 PM 37.4 °F 32.1 °F 26.6 °F 65% 30.11 in 10.0 mi SSE 6.9 mph - N/A   Clear
3:53 PM 37.4 °F 32.8 °F 26.6 °F 65% 30.10 in 10.0 mi SSE 5.8 mph - N/A   Clear
4:13 PM 37.4 °F 32.8 °F 26.6 °F 65% 30.09 in 10.0 mi SSE 5.8 mph - N/A   Clear
4:33 PM 39.2 °F 35.0 °F 24.8 °F 56% 30.09 in 10.0 mi SSE 5.8 mph - N/A   Clear
4:53 PM 37.4 °F 32.8 °F 26.6 °F 65% 30.09 in 10.0 mi South 5.8 mph - N/A   Clear
5:13 PM 37.4 °F 32.8 °F 26.6 °F 65% 30.08 in 10.0 mi South 5.8 mph - N/A   Clear
5:33 PM 37.4 °F 33.8 °F 26.6 °F 65% 30.08 in 10.0 mi South 4.6 mph - N/A   Clear
5:53 PM 37.4 °F 32.8 °F 24.8 °F 60% 30.08 in 10.0 mi South 5.8 mph - N/A   Clear
6:13 PM 35.6 °F 31.7 °F 24.8 °F 65% 30.07 in 10.0 mi South 4.6 mph - N/A   Clear
6:33 PM 37.4 °F 34.9 °F 24.8 °F 60% 30.07 in 10.0 mi South 3.5 mph - N/A   Clear
6:53 PM 37.4 °F 34.9 °F 24.8 °F 60% 30.06 in 10.0 mi SSE 3.5 mph - N/A   Clear
7:13 PM 37.4 °F 34.9 °F 21.2 °F 52% 30.05 in 10.0 mi SSE 3.5 mph - N/A   Clear
7:33 PM 37.4 °F 33.8 °F 21.2 °F 52% 30.05 in 10.0 mi South 4.6 mph - N/A   Clear
7:53 PM 37.4 °F 34.9 °F 17.6 °F 45% 30.04 in 10.0 mi SE 3.5 mph - N/A   Clear
8:13 PM 37.4 °F - 19.4 °F 48% 30.04 in 10.0 mi Calm Calm - N/A   Clear
8:33 PM 37.4 °F - 19.4 °F 48% 30.04 in 10.0 mi Calm Calm - N/A   Clear
8:53 PM 37.4 °F - 19.4 °F 48% 30.05 in 10.0 mi Calm Calm - N/A   Clear
9:13 PM 39.2 °F - 19.4 °F 45% 30.05 in 10.0 mi Calm Calm - N/A   Clear
9:34 PM 35.6 °F - 19.4 °F 52% 30.05 in 10.0 mi Calm Calm - N/A   Clear
9:53 PM 35.6 °F - 19.4 °F 52% 30.06 in 10.0 mi Calm Calm - N/A   Clear
10:13 PM 35.6 °F - 19.4 °F 52% 30.06 in 10.0 mi Calm Calm - N/A   Clear
10:53 PM 35.6 °F - 19.4 °F 52% 30.06 in 10.0 mi Calm Calm - N/A   Clear
11:13 PM 30.2 °F - 23.0 °F 75% 30.06 in 10.0 mi Calm Calm - N/A   Clear
11:34 PM 32.0 °F - 21.2 °F 64% 30.06 in 10.0 mi Calm Calm - N/A   Clear
11:53 PM 30.2 °F - 24.8 °F 80% 30.06 in 10.0 mi Calm Calm - N/A   Clear